Time,TemperatureF,DewpointF,PressureIn,WindDirection,WindDirectionDegrees,WindSpeedMPH,WindSpeedGustMPH,Humidity,HourlyPrecipIn,Conditions,Clouds,dailyrainin,SoftwareType,DateUTC
2013-03-24 00:12:00,47.5,40.3,29.82,SE,135,0.0,-999.0,76,-99.99,,,0.00,Acu-Link.com,2013-03-24 07:12:00,
2013-03-24 00:27:00,47.1,40.3,29.82,SSE,157,0.0,-999.0,77,-99.99,,,0.00,Acu-Link.com,2013-03-24 07:27:00,
2013-03-24 00:43:00,46.9,40.4,29.82,South,180,0.0,-999.0,78,-99.99,,,0.00,Acu-Link.com,2013-03-24 07:43:00,
2013-03-24 00:58:00,46.9,40.4,29.82,SSW,202,0.0,-999.0,78,-99.99,,,0.00,Acu-Link.com,2013-03-24 07:58:00,
2013-03-24 01:13:00,46.8,40.0,29.82,SSE,157,0.0,-999.0,77,-99.99,,,0.00,Acu-Link.com,2013-03-24 08:13:00,
2013-03-24 01:29:00,46.2,40.4,29.83,SSW,202,0.0,-999.0,80,-99.99,,,0.00,Acu-Link.com,2013-03-24 08:29:00,
2013-03-24 01:44:00,46.6,40.4,29.83,WSW,247,0.0,-999.0,79,-99.99,,,0.00,Acu-Link.com,2013-03-24 08:44:00,
2013-03-24 01:59:00,46.8,41.0,29.82,WNW,292,0.0,-999.0,80,-99.99,,,0.00,Acu-Link.com,2013-03-24 08:59:00,
2013-03-24 02:14:00,46.0,40.8,29.83,SW,225,0.0,-999.0,82,-99.99,,,0.00,Acu-Link.com,2013-03-24 09:14:00,
2013-03-24 02:29:00,46.6,40.8,29.82,WSW,247,2.2,-999.0,80,-99.99,,,0.00,Acu-Link.com,2013-03-24 09:29:00,
2013-03-24 02:44:00,46.0,40.5,29.82,North,0,2.2,-999.0,81,-99.99,,,0.00,Acu-Link.com,2013-03-24 09:44:00,
2013-03-24 03:00:00,45.3,40.4,29.82,WSW,247,0.0,-999.0,83,-99.99,,,0.00,Acu-Link.com,2013-03-24 10:00:00,
2013-03-24 03:15:00,45.1,40.6,29.82,WSW,247,0.0,-999.0,84,-99.99,,,0.00,Acu-Link.com,2013-03-24 10:15:00,
2013-03-24 03:30:00,44.6,40.4,29.82,SW,225,0.0,-999.0,85,-99.99,,,0.00,Acu-Link.com,2013-03-24 10:30:00,
2013-03-24 03:45:00,44.2,40.6,29.81,South,180,0.0,-999.0,87,-99.99,,,0.00,Acu-Link.com,2013-03-24 10:45:00,
2013-03-24 04:00:00,44.6,41.0,29.81,SSW,202,0.0,-999.0,87,-99.99,,,0.00,Acu-Link.com,2013-03-24 11:00:00,
2013-03-24 04:16:00,43.7,40.4,29.81,East,90,0.0,-999.0,88,-99.99,,,0.00,Acu-Link.com,2013-03-24 11:16:00,
2013-03-24 04:46:00,43.0,40.3,29.82,ESE,112,0.0,-999.0,90,-99.99,,,0.00,Acu-Link.com,2013-03-24 11:46:00,
2013-03-24 05:01:00,43.2,40.5,29.81,SSE,157,0.0,-999.0,90,-99.99,,,0.00,Acu-Link.com,2013-03-24 12:01:00,
2013-03-24 05:16:00,42.6,40.2,29.81,NE,45,0.0,-999.0,91,-99.99,,,0.00,Acu-Link.com,2013-03-24 12:16:00,
2013-03-24 05:32:00,43.0,41.1,29.82,South,180,0.0,-999.0,93,-99.99,,,0.00,Acu-Link.com,2013-03-24 12:32:00,
2013-03-24 05:47:00,43.5,41.3,29.83,SW,225,0.0,-999.0,92,-99.99,,,0.00,Acu-Link.com,2013-03-24 12:47:00,
2013-03-24 06:17:00,42.3,41.0,29.82,NNE,22,0.0,-999.0,95,-99.99,,,0.00,Acu-Link.com,2013-03-24 13:17:00,
2013-03-24 06:32:00,42.4,41.3,29.82,South,180,0.0,-999.0,96,-99.99,,,0.00,Acu-Link.com,2013-03-24 13:32:00,
2013-03-24 06:48:00,42.8,41.7,29.83,South,180,0.0,-999.0,96,-99.99,,,0.00,Acu-Link.com,2013-03-24 13:48:00,
2013-03-24 07:03:00,43.3,42.0,29.84,South,180,0.0,-999.0,95,-99.99,,,0.00,Acu-Link.com,2013-03-24 14:03:00,
2013-03-24 07:18:00,42.8,41.5,29.83,South,180,0.0,-999.0,95,-99.99,,,0.00,Acu-Link.com,2013-03-24 14:18:00,
2013-03-24 07:33:00,42.6,41.5,29.83,SSW,202,0.0,-999.0,96,-99.99,,,0.00,Acu-Link.com,2013-03-24 14:33:00,
2013-03-24 07:48:00,42.8,42.3,29.83,WNW,292,0.0,-999.0,98,-99.99,,,0.00,Acu-Link.com,2013-03-24 14:48:00,
2013-03-24 08:04:00,43.7,42.9,29.84,SSE,157,0.0,-999.0,97,-99.99,,,0.00,Acu-Link.com,2013-03-24 15:04:00,
2013-03-24 08:19:00,44.4,43.1,29.84,WNW,292,0.0,-999.0,95,-99.99,,,0.00,Acu-Link.com,2013-03-24 15:19:00,
2013-03-24 08:34:00,45.9,41.6,29.84,ENE,67,2.2,-999.0,85,-99.99,,,0.00,Acu-Link.com,2013-03-24 15:34:00,
2013-03-24 08:49:00,46.4,41.2,29.83,NW,315,0.0,-999.0,82,-99.99,,,0.00,Acu-Link.com,2013-03-24 15:49:00,
2013-03-24 09:05:00,47.7,42.5,29.84,SW,225,0.0,-999.0,82,-99.99,,,0.00,Acu-Link.com,2013-03-24 16:05:00,
2013-03-24 09:20:00,49.1,43.5,29.84,NE,45,0.0,-999.0,81,-99.99,,,0.00,Acu-Link.com,2013-03-24 16:20:00,
2013-03-24 09:35:00,50.9,44.3,29.84,NE,45,0.0,-999.0,78,-99.99,,,0.00,Acu-Link.com,2013-03-24 16:35:00,
2013-03-24 09:50:00,52.5,44.8,29.86,NW,315,2.2,-999.0,75,-99.99,,,0.00,Acu-Link.com,2013-03-24 16:50:00,
2013-03-24 10:06:00,54.9,46.8,29.85,NNW,337,3.7,-999.0,74,-99.99,,,0.00,Acu-Link.com,2013-03-24 17:06:00,
2013-03-24 10:36:00,56.8,47.5,29.84,NNE,22,2.7,-999.0,71,-99.99,,,0.00,Acu-Link.com,2013-03-24 17:36:00,
2013-03-24 10:52:00,57.4,48.1,29.83,NNE,22,1.7,-999.0,71,-99.99,,,0.00,Acu-Link.com,2013-03-24 17:52:00,
2013-03-24 11:07:00,58.8,48.3,29.83,NNE,22,2.7,-999.0,68,-99.99,,,0.00,Acu-Link.com,2013-03-24 18:07:00,
2013-03-24 11:22:00,59.9,48.9,29.84,WSW,247,2.7,-999.0,67,-99.99,,,0.00,Acu-Link.com,2013-03-24 18:22:00,
2013-03-24 11:37:00,60.8,48.5,29.83,NNE,22,3.2,-999.0,64,-99.99,,,0.00,Acu-Link.com,2013-03-24 18:37:00,
2013-03-24 11:52:00,61.7,48.1,29.83,NE,45,3.7,-999.0,61,-99.99,,,0.00,Acu-Link.com,2013-03-24 18:52:00,
2013-03-24 12:23:00,63.5,47.5,29.82,NNW,337,3.2,-999.0,56,-99.99,,,0.00,Acu-Link.com,2013-03-24 19:23:00,
2013-03-24 12:38:00,64.6,47.6,29.83,North,0,2.7,-999.0,54,-99.99,,,0.00,Acu-Link.com,2013-03-24 19:38:00,
2013-03-24 12:53:00,65.8,47.2,29.82,NNE,22,2.7,-999.0,51,-99.99,,,0.00,Acu-Link.com,2013-03-24 19:53:00,
2013-03-24 13:08:00,66.7,46.4,29.81,ENE,67,1.7,-999.0,48,-99.99,,,0.00,Acu-Link.com,2013-03-24 20:08:00,
2013-03-24 13:23:00,67.8,46.3,29.81,North,0,2.7,-999.0,46,-99.99,,,0.00,Acu-Link.com,2013-03-24 20:23:00,
2013-03-24 13:39:00,70.0,48.3,29.81,SW,225,0.0,-999.0,46,-99.99,,,0.00,Acu-Link.com,2013-03-24 20:39:00,
2013-03-24 13:54:00,69.6,47.9,29.80,NE,45,2.7,-999.0,46,-99.99,,,0.00,Acu-Link.com,2013-03-24 20:54:00,
2013-03-24 14:09:00,70.3,47.9,29.78,North,0,1.1,-999.0,45,-99.99,,,0.00,Acu-Link.com,2013-03-24 21:09:00,
2013-03-24 14:24:00,71.4,48.3,29.77,West,270,1.7,-999.0,44,-99.99,,,0.00,Acu-Link.com,2013-03-24 21:24:00,
2013-03-24 14:39:00,69.8,46.3,29.77,WNW,292,1.7,-999.0,43,-99.99,,,0.00,Acu-Link.com,2013-03-24 21:39:00,
2013-03-24 14:55:00,72.0,48.3,29.76,West,270,1.7,-999.0,43,-99.99,,,0.00,Acu-Link.com,2013-03-24 21:55:00,
2013-03-24 15:10:00,70.0,47.1,29.76,NE,45,2.2,-999.0,44,-99.99,,,0.00,Acu-Link.com,2013-03-24 22:10:00,
2013-03-24 15:26:00,70.2,46.0,29.75,SSW,202,3.2,-999.0,42,-99.99,,,0.00,Acu-Link.com,2013-03-24 22:26:00,
2013-03-24 15:56:00,69.4,44.0,29.74,West,270,4.2,-999.0,40,-99.99,,,0.00,Acu-Link.com,2013-03-24 22:56:00,
2013-03-24 16:11:00,70.3,44.8,29.73,SSE,157,2.7,-999.0,40,-99.99,,,0.00,Acu-Link.com,2013-03-24 23:11:00,
2013-03-24 16:27:00,70.2,46.0,29.73,SSW,202,3.2,-999.0,42,-99.99,,,0.00,Acu-Link.com,2013-03-24 23:27:00,
2013-03-24 16:42:00,68.0,46.4,29.72,SSW,202,2.7,-999.0,46,-99.99,,,0.00,Acu-Link.com,2013-03-24 23:42:00,
2013-03-24 16:58:00,68.4,45.6,29.72,West,270,3.2,-999.0,44,-99.99,,,0.00,Acu-Link.com,2013-03-24 23:58:00,
2013-03-24 17:13:00,68.9,45.5,29.71,WSW,247,3.7,-999.0,43,-99.99,,,0.00,Acu-Link.com,2013-03-25 00:13:00,
2013-03-24 17:29:00,68.7,44.7,29.70,South,180,4.2,-999.0,42,-99.99,,,0.00,Acu-Link.com,2013-03-25 00:29:00,
2013-03-24 17:44:00,70.0,45.2,29.70,NNE,22,2.2,-999.0,41,-99.99,,,0.00,Acu-Link.com,2013-03-25 00:44:00,
2013-03-24 17:59:00,70.2,46.0,29.70,WSW,247,0.0,-999.0,42,-99.99,,,0.00,Acu-Link.com,2013-03-25 00:59:00,
2013-03-24 18:14:00,67.1,47.8,29.70,SW,225,9.9,-999.0,50,-99.99,,,0.00,Acu-Link.com,2013-03-25 01:14:00,
2013-03-24 18:29:00,65.3,46.2,29.70,WSW,247,5.3,-999.0,50,-99.99,,,0.00,Acu-Link.com,2013-03-25 01:29:00,
2013-03-24 18:45:00,63.3,45.4,29.71,SW,225,7.8,-999.0,52,-99.99,,,0.00,Acu-Link.com,2013-03-25 01:45:00,
2013-03-24 19:00:00,59.2,42.6,29.71,SW,225,5.8,-999.0,54,-99.99,,,0.00,Acu-Link.com,2013-03-25 02:00:00,
2013-03-24 19:15:00,57.9,40.4,29.72,NNE,22,2.7,-999.0,52,-99.99,,,0.00,Acu-Link.com,2013-03-25 02:15:00,
2013-03-24 19:31:00,56.5,39.1,29.72,SW,225,4.2,-999.0,52,-99.99,,,0.00,Acu-Link.com,2013-03-25 02:31:00,
2013-03-24 20:01:00,55.0,37.7,29.72,WSW,247,3.7,-999.0,52,-99.99,,,0.00,Acu-Link.com,2013-03-25 03:01:00,
2013-03-24 20:16:00,54.5,37.7,29.73,North,0,0.0,-999.0,53,-99.99,,,0.00,Acu-Link.com,2013-03-25 03:16:00,
2013-03-24 20:31:00,53.8,37.5,29.73,NE,45,0.0,-999.0,54,-99.99,,,0.00,Acu-Link.com,2013-03-25 03:31:00,
2013-03-24 20:47:00,53.4,37.6,29.73,West,270,1.7,-999.0,55,-99.99,,,0.00,Acu-Link.com,2013-03-25 03:47:00,
2013-03-24 21:02:00,52.9,37.6,29.72,SSE,157,0.0,-999.0,56,-99.99,,,0.00,Acu-Link.com,2013-03-25 04:02:00,
2013-03-24 21:17:00,52.9,37.2,29.74,NNW,337,2.2,-999.0,55,-99.99,,,0.00,Acu-Link.com,2013-03-25 04:17:00,
2013-03-24 21:32:00,52.7,37.4,29.73,ESE,112,1.1,-999.0,56,-99.99,,,0.00,Acu-Link.com,2013-03-25 04:32:00,
2013-03-24 21:47:00,52.2,37.4,29.74,ENE,67,0.0,-999.0,57,-99.99,,,0.00,Acu-Link.com,2013-03-25 04:47:00,
2013-03-24 22:03:00,51.6,39.0,29.73,SSE,157,0.0,-999.0,62,-99.99,,,0.00,Acu-Link.com,2013-03-25 05:03:00,
2013-03-24 22:18:00,50.7,38.2,29.74,NNW,337,0.0,-999.0,62,-99.99,,,0.00,Acu-Link.com,2013-03-25 05:18:00,
2013-03-24 22:33:00,50.2,38.5,29.74,North,0,0.0,-999.0,64,-99.99,,,0.00,Acu-Link.com,2013-03-25 05:33:00,
2013-03-24 22:48:00,50.2,39.3,29.75,NE,45,0.0,-999.0,66,-99.99,,,0.00,Acu-Link.com,2013-03-25 05:48:00,
2013-03-24 23:04:00,50.4,39.9,29.74,SSW,202,0.0,-999.0,67,-99.99,,,0.00,Acu-Link.com,2013-03-25 06:04:00,
2013-03-24 23:19:00,49.3,43.4,29.75,South,180,3.7,-999.0,80,-99.99,,,0.00,Acu-Link.com,2013-03-25 06:19:00,
2013-03-24 23:34:00,49.6,43.7,29.74,SSW,202,2.7,-999.0,80,-99.99,,,0.00,Acu-Link.com,2013-03-25 06:34:00,
2013-03-24 23:49:00,49.3,42.4,29.75,SSW,202,0.0,-999.0,77,-99.99,,,0.00,Acu-Link.com,2013-03-25 06:49:00,